Regional Weather Roundup
Issued by NWS

Home | Current Version | Previous Version | Text Only | Print | Product List | Glossary Off
Versions: 1 2 3 4 5 6 7 8 9 10 11 12 13 14 15 16 17 18 19 20 21 22 23 24 25 26 27 28 29 30 31 32 33 34 35 36 37 38 39 40 41 42 43 44 45 46 47 48 49 50

000
ASUS43 KLOT 281121
RWRIL

ILLINOIS REGIONAL WEATHER ROUNDUP
NATIONAL WEATHER SERVICE CHICAGO/ROMEOVILLE IL
600 AM CDT THU MAY 28 2015

NOTE: "FAIR" INDICATES FEW OR NO CLOUDS BELOW 12,000 FEET WITH NO
SIGNIFICANT WEATHER AND/OR OBSTRUCTIONS TO VISIBILITY.

* THESE STATIONS ARE NOT UNDER NWS QUALITY CONTROL. THEY ALSO MAY NOT
  REPORT WEATHER SUCH AS PRECIPITATION OR FOG.

ILZ001-002-007-009-015-016-024-281200-
NORTHWEST ILLINOIS

CITY           SKY/WX    TMP DP  RH WIND       PRES   REMARKS
MOLINE         CLEAR     55  53  93 CALM      30.14F
STERLING*      CLEAR     57  54  88 E3        30.17F
SAVANNA*       CLEAR     59  56  88 CALM      30.16S
$$

ILZ003-004-008-010-011-017-018-281200-
NORTH CENTRAL ILLINOIS

CITY           SKY/WX    TMP DP  RH WIND       PRES   REMARKS
ROCKFORD       PTCLDY    57  53  86 SE5       30.19R
FREEPORT*      CLEAR     59  55  84 SW5       30.19S
ROCHELLE*      CLEAR     55  53  94 CALM      30.18S
DE KALB*       CLEAR     56  52  85 SW3       30.20R
PERU*          CLEAR     60  55  85 CALM      30.19R
$$

ILZ005-006-012>014-019>023-281200-
NORTHEAST ILLINOIS

CITY           SKY/WX    TMP DP  RH WIND       PRES   REMARKS
CHICAGO-OHARE  PTCLDY    57  54  89 CALM      30.18R
CHICAGO-MIDWAY PTCLDY    61  56  83 S5        30.18R
AURORA         CLEAR     53  50  89 CALM      30.20R
LANSING*       CLEAR     51  49  93 S6        30.21R FOG
JOLIET*        CLEAR     54  53  98 CALM      30.20R
WAUKEGAN       CLEAR     58  54  86 SW5       30.17R
DUPAGE AIRPORT CLEAR     53  52  96 S3        30.19R
KANKAKEE*      CLEAR     55  53  95 CALM      30.20R
WHEELING       CLEAR     53  51  93 SE3       30.19R
MORRIS*        CLEAR     56  55  94 CALM      30.16S
ROMEOVILLE*    CLEAR     55  53  92 SE3       30.19S
NORTHERLY ISL    N/A     63  55  75 S3          N/A
$$

LMZ740>746-281200-
SOUTHERN LAKE MICHIGAN

STATION/POSITION SKY/WX   TEMP    WIND        PRES    VSBY  WAVE
                          AIR SEA DIR/SP/G                  HT/PER
                          (F)     (DEG/KT/KT) (MB)    (MI)  (FT/S)
SOUTHERN BUOY              46 38  210/  6/  8 1022.5R         0
HARRISON CRIB              63     180/ 10/ 11   N/A
BURNHAM HARBOR             63     220/  4/  4   N/A
CALUMET HARBOR             60     210/  2/  2   N/A
BURNS HARBOR               58     130/  3/  6 1022.4R
MICHIGAN CITY              58     120/ 10/ 10   N/A
MICHIGAN CITY 6N           55 53  150/  4/  4   N/A           0
ST. JOSEPH                 58 56  190/  2/  2   N/A           0
$$

ILZ025>027-034>036-040-047-049-050-058-095>099-281200-
WEST-CENTRAL ILLINOIS

CITY           SKY/WX    TMP DP  RH WIND       PRES   REMARKS
QUINCY         CLEAR     61  55  81 SE6       30.15R
GALESBURG*     CLEAR     56  55  97 SE6       30.16R
MACOMB*        CLEAR     56  56 100 SE3       30.18R
JACKSONVILLE*  CLEAR     58  55  91 E5        30.16R
PITTSFIELD*    CLEAR     58  56  93 E3        30.16R
$$

ILZ028>032-037-038-041>044-048-051>054-059>061-281200-
CENTRAL ILLINOIS

CITY           SKY/WX    TMP DP  RH WIND       PRES   REMARKS
PONTIAC        CLEAR     58  55  91 E3        30.19S
BLOOMINGTON    CLEAR     57  54  90 S6        30.20R
DECATUR        PTCLDY    57  52  83 E5        30.19R
PEORIA         CLEAR     60  56  86 CALM      30.17R
LACON*         CLEAR     55  54  95 CALM      30.17R
LINCOLN*       CLEAR     58  55  88 CALM      30.17S
SPRINGFIELD    CLEAR     59  54  83 CALM      30.17R
TAYLORVILLE    PTCLDY    59  54  82 E7        30.17R
$$

ILZ033-039-045-046-055>057-062-063-281200-
EAST-CENTRAL ILLINOIS

CITY           SKY/WX    TMP DP  RH WIND       PRES   REMARKS
CHAMPAIGN      PTCLDY    58  54  86 E6        30.18R
DANVILLE*      CLEAR     57  56  95 E5        30.16S
RANTOUL*       CLEAR     58  55  88 CALM      30.19R
PARIS*         CLEAR     58  57  96 E3        30.19R
$$

ILZ079-100>102-281200-
SOUTHWEST ILLINOIS

CITY           SKY/WX    TMP DP  RH WIND       PRES   REMARKS
ALTON          PTCLDY    60  60 100 NE3       30.16R
BELLEVILLE     PTCLDY    62  62  99 CALM      30.14R
CAHOKIA*       PTCLDY    61  58  90 CALM      30.14R
SPARTA*        PTCLDY    66  66  99 CALM      30.14R FOG
$$

ILZ064>066-069>071-074>076-080>082-084>086-088>090-092>094-281200-
SOUTH-CENTRAL ILLINOIS

CITY           SKY/WX    TMP DP  RH WIND       PRES   REMARKS
CARBONDALE     PTCLDY    66  65  96 SE3       30.14R
CAIRO*         FOG       63  63 100 CALM      30.15R VSB 1/4
EFFINGHAM*     PTCLDY    62  55  80 NE3       30.18R
MARION           N/A     66  66 100 CALM      30.15R FOG
MT. VERNON     PTCLDY    63  57  82 CALM      30.16S
CENTRALIA*     PTCLDY    59  58  94 CALM      30.15R FOG
SALEM*         CLEAR     65  59  83 CALM      30.16R
METROPOLIS*    FOG       63  63 100 CALM      30.15R VSB 1/2
$$

ILZ067-068-072-073-078-083-087-091-281200-
SOUTHEAST ILLINOIS

CITY           SKY/WX    TMP DP  RH WIND       PRES   REMARKS
LAWRENCEVILLE  FOG       61  60  97 NE3       30.17R VSB<1/4
FLORA*         CLOUDY    62  60  93 CALM      30.17R
FAIRFIELD*     FOG       64  64  99 CALM      30.14S VSB 1/4
HARRISBURG*    FOG       64  64 100 CALM      30.16R VSB<1/4
ROBINSON*      PTCLDY    59  57  94 CALM      30.17S
CARMI*         MOCLDY    64  63  94 CALM      30.15R FOG
$$

ABBREVIATIONS USED IN REMARKS
   TC - TEMPERATURE IN CELSIUS
  WCI - WIND CHILL INDEX
   HX - HEAT INDEX
  VSB - VISIBILITY
$$




USA.gov is the U.S. government's official web portal to all federal, state and local government web resources and services.